Theta_e
308 312 318 322 324 324 324 316 315 317 319 317 317 318 319 316 314 316 313 312 313 305 299 300 302 303 303 308 312 302 302 300 303 310 313 307 307 303 302 301 302 302 306 306 301 303 302 295 296 296 296 295 295 295
307 311 314 320 324 324 324 316 316 318 318 316 318 318 318 314 312 314 313 312 312 311 299 300 301 302 303 303 302 301 305 303 304 308 305 304 304 301 303 307 297 303 302 306 302 302 296 295 295 295 295 294 295 295
305 310 313 319 322 324 324 316 316 318 317 317 318 318 317 313 312 312 313 312 311 302 298 299 298 299 300 301 302 303 300 300 299 302 305 305 309 302 306 304 301 298 295 298 297 297 295 294 294 294 294 294 295 295
304 310 312 317 322 324 324 316 316 318 317 317 318 318 317 314 311 310 312 311 311 308 304 298 297 298 298 298 300 301 302 300 298 297 298 306 307 297 303 299 300 299 295 298 298 296 295 295 295 294 294 295 295 293
304 310 312 314 321 324 324 315 316 318 317 318 319 316 315 315 314 312 312 312 313 314 303 297 297 297 298 298 299 298 298 297 299 301 303 304 296 296 296 296 298 296 298 299 300 297 297 296 294 294 295 295 293 293
303 309 312 316 320 323 324 315 316 317 317 318 318 317 318 317 316 311 311 311 314 314 308 305 296 294 296 297 297 297 297 297 296 300 298 295 293 297 301 302 299 296 296 296 296 295 295 294 294 294 295 294 292 292
302 308 312 315 319 323 323 315 316 317 318 319 317 318 320 315 311 316 318 315 313 313 311 298 297 294 295 295 295 295 295 295 297 296 298 297 296 296 300 301 297 295 294 295 295 294 294 294 295 294 294 292 292 293
302 306 312 314 319 323 322 315 316 317 318 319 319 318 312 311 315 316 314 313 314 314 310 301 296 296 294 295 296 293 293 293 293 296 295 297 294 295 298 298 294 294 294 295 294 294 294 294 294 294 292 292 293 293
301 305 311 313 318 321 320 314 316 318 318 319 319 312 312 315 316 313 313 313 314 314 307 304 305 304 293 295 295 294 294 299 292 298 297 294 299 298 299 298 294 294 295 295 294 293 294 295 294 293 292 292 293 293
301 305 312 312 317 320 319 314 316 318 318 316 311 314 316 316 313 314 314 315 315 312 307 299 298 298 296 297 296 297 295 298 301 296 292 295 299 299 295 295 294 294 295 294 294 293 294 295 294 292 292 292 292 292
301 304 311 313 317 320 318 314 317 317 315 311 315 318 311 311 314 315 314 313 307 304 300 298 299 296 295 300 299 295 298 295 302 299 297 302 301 297 294 294 294 294 294 294 294 294 295 295 293 292 292 291 290 291
301 304 312 313 316 319 317 315 317 316 311 316 318 310 311 314 313 311 303 301 306 309 297 299 297 295 294 295 297 294 299 295 303 293 297 301 302 295 293 293 294 294 294 293 294 294 294 293 292 292 291 290 290 291
301 304 311 314 315 319 316 315 316 315 316 316 316 312 313 307 309 313 311 310 306 297 295 296 297 295 294 294 295 296 300 301 293 297 302 304 297 293 292 294 294 294 293 293 294 294 293 292 292 291 290 290 290 290
301 305 310 314 315 318 316 315 314 316 319 318 312 306 308 307 310 312 315 311 301 298 298 298 296 298 295 297 296 301 295 295 298 300 304 302 295 293 292 294 294 293 293 293 293 293 293 292 291 290 289 289 290 290
302 306 311 314 314 317 316 315 315 318 319 318 315 314 306 309 307 308 308 300 298 298 298 297 296 297 296 294 295 294 294 299 301 305 304 299 294 292 293 293 293 293 293 293 292 292 291 291 290 290 289 289 290 290
304 308 311 314 314 316 315 313 316 318 319 317 311 306 308 307 299 299 299 296 297 298 300 300 298 301 298 299 296 299 304 306 310 300 298 295 294 292 293 293 293 292 293 293 292 292 291 290 290 290 289 289 289 290
301 305 311 313 316 314 315 312 314 318 319 314 304 307 309 309 305 302 299 297 298 301 304 299 304 305 295 299 301 299 302 306 301 297 296 294 294 293 293 293 293 292 292 292 292 291 291 291 290 290 289 289 289 289
299 307 312 314 314 312 310 314 315 311 302 299 306 305 308 310 304 301 301 299 299 303 300 305 296 298 302 304 303 300 296 298 297 295 294 293 293 292 293 293 292 292 292 292 291 291 290 289 290 290 289 289 289 289
301 307 311 314 314 309 310 309 309 299 295 301 305 308 307 305 306 307 306 300 301 303 302 301 303 304 302 301 302 300 299 299 296 294 293 293 292 293 292 292 291 291 291 291 290 289 289 289 290 290 290 289 289 289
302 304 312 313 312 309 305 301 308 303 299 299 299 300 303 302 303 303 298 299 300 301 300 300 305 303 305 309 308 308 305 303 301 294 292 292 292 292 292 291 291 291 290 289 289 289 289 289 289 289 290 289 289 289
300 303 311 311 308 307 303 300 297 295 295 294 295 299 296 296 295 296 296 296 299 298 300 299 304 307 307 307 307 307 306 306 303 303 300 292 292 292 292 291 291 291 290 289 289 288 289 289 289 289 289 289 288 289
301 306 308 307 305 299 295 294 293 293 293 293 294 293 294 295 295 295 295 296 296 300 299 302 303 305 306 307 306 306 306 303 301 298 295 294 292 292 291 291 291 290 289 289 288 288 289 289 289 288 289 289 288 289
307 308 306 302 293 292 291 292 293 293 294 294 293 293 293 293 293 293 296 297 297 299 301 304 304 304 306 305 304 304 303 303 300 295 294 293 292 292 291 290 290 289 289 288 288 288 288 288 288 288 289 289 288 288
307 304 295 292 291 291 290 291 292 292 292 293 293 292 292 291 292 292 298 296 294 298 300 302 302 301 298 299 302 304 302 299 297 294 294 293 292 291 290 290 289 288 288 288 288 288 288 288 288 289 289 289 288 288
298 291 290 290 289 291 292 293 294 294 292 292 292 291 291 291 294 294 295 296 295 295 297 299 300 301 302 301 301 300 298 300 297 294 293 293 291 290 289 289 288 288 288 288 288 288 288 289 289 289 289 289 288 288
290 289 291 290 291 293 293 293 294 294 292 291 291 291 291 292 293 297 298 293 293 295 297 299 300 300 301 305 303 300 298 295 293 293 293 292 291 291 289 288 288 288 288 288 288 288 288 288 289 289 289 289 288 288
290 290 290 291 291 292 293 293 294 294 292 292 291 292 292 294 297 295 293 297 296 299 302 301 301 303 303 302 301 299 297 293 292 293 293 291 291 290 289 288 288 288 288 288 288 288 288 288 289 289 289 289 288 288
289 290 291 292 292 293 293 295 294 297 294 292 293 292 293 295 297 291 295 301 304 303 301 300 300 300 301 299 298 296 292 292 292 293 291 291 290 289 288 288 288 288 288 288 288 288 288 289 290 290 290 288 288 288
292 292 293 293 292 292 293 294 295 293 292 294 297 294 292 290 293 294 296 299 298 297 295 293 292 295 296 295 294 292 293 293 292 291 290 289 289 289 288 288 288 288 288 288 289 289 290 290 290 290 290 288 288 288
292 291 290 289 290 290 288 290 290 291 293 291 289 289 290 290 291 292 294 293 294 294 294 294 294 295 294 293 292 292 293 292 291 289 289 289 289 289 288 288 288 289 289 289 290 290 290 290 290 290 289 288 288 288
289 289 288 289 290 289 289 289 290 290 291 290 291 291 290 290 289 290 290 291 291 291 291 291 291 292 293 293 293 292 291 290 289 289 289 289 289 289 289 289 289 289 289 289 289 289 290 290 290 289 289 289 288 288
290 289 290 290 290 290 291 290 290 290 290 290 290 290 290 290 289 289 289 290 290 290 290 291 291 292 294 295 293 291 290 289 289 289 289 290 290 289 289 289 288 288 288 288 289 289 290 290 290 290 290 289 289 289
289 290 290 291 291 290 290 290 290 289 289 290 290 290 290 289 289 289 289 290 290 290 290 291 292 294 294 292 291 290 289 289 289 289 289 289 289 288 288 288 288 288 288 288 289 289 289 290 290 290 290 290 290 289
Wind_Speed
23 33 22 34 41 38 35 33 35 33 28 25 21 19 18 18 23 27 24 20 13 10 12 7 11 7 7 7 4 14 8 3 2 1 1 2 1 2 2 1 2 2 2 1 1 2 3 8 4 2 6 11 15 17
22 30 33 31 44 40 36 35 37 34 29 25 21 18 17 16 23 27 23 21 16 11 10 12 12 12 10 12 9 15 2 6 7 2 1 3 2 2 2 1 2 2 2 1 4 2 4 3 1 3 4 10 14 16
20 31 38 31 43 41 37 37 39 35 30 26 23 19 17 17 22 28 23 25 19 23 15 6 7 11 10 10 15 6 5 6 4 7 4 2 2 1 2 3 2 5 5 3 2 6 6 3 2 2 5 9 12 14
26 30 36 30 45 42 38 40 40 37 31 28 25 21 21 21 22 24 19 26 18 17 9 4 10 10 10 10 5 5 8 10 14 8 5 3 2 2 1 3 3 3 10 6 4 4 4 4 4 2 5 6 9 13
28 30 36 34 47 44 41 42 42 38 33 29 25 22 21 21 21 19 22 27 25 6 9 11 11 8 10 10 10 13 13 14 7 4 4 2 3 3 1 2 5 10 5 4 2 8 2 7 5 2 3 7 10 14
26 34 37 31 46 47 43 45 43 39 35 31 27 24 22 19 19 24 11 19 15 14 11 6 6 5 9 11 10 11 11 8 6 4 4 3 2 0 2 3 1 10 6 3 5 8 8 8 4 1 2 6 10 14
28 34 40 35 50 49 45 48 45 41 37 33 29 26 23 26 30 20 8 20 20 13 7 10 6 5 10 9 7 8 6 5 4 3 2 3 2 2 2 3 7 11 10 9 12 11 7 5 3 1 3 6 10 12
28 35 39 40 54 52 48 51 47 42 39 35 31 29 32 32 22 9 16 26 18 8 7 8 4 6 8 4 3 3 3 4 4 2 2 2 2 4 4 10 7 13 13 12 11 5 7 7 5 1 3 6 10 12
30 34 40 44 56 54 52 54 50 45 41 37 36 36 30 20 13 15 19 15 10 5 9 6 7 5 10 4 4 3 3 3 2 1 2 2 4 6 7 10 16 20 16 15 12 8 7 7 4 1 3 6 9 13
30 33 42 50 59 56 57 57 53 48 44 43 41 20 11 15 21 22 8 4 3 3 5 7 9 4 9 5 3 4 2 2 1 2 1 3 4 10 8 10 16 20 14 18 15 11 10 8 5 2 2 6 10 12
29 36 45 46 66 57 59 61 57 52 49 41 19 11 23 34 17 4 5 3 3 5 4 7 7 12 8 4 5 2 4 1 2 2 2 3 4 6 13 13 18 20 16 17 11 9 10 8 6 2 2 6 9 12
26 37 46 46 68 62 63 66 63 63 46 33 22 30 29 9 4 6 1 2 2 5 8 10 10 9 8 6 5 4 3 2 2 3 2 3 3 8 16 18 20 20 18 16 12 13 11 9 6 3 2 6 9 12
23 38 50 49 74 69 69 70 68 60 47 38 20 12 9 5 4 8 8 4 5 13 12 16 10 7 7 5 6 4 3 2 5 2 4 4 9 13 18 21 22 20 18 15 14 12 11 9 6 2 2 5 8 11
26 39 48 55 71 67 73 74 74 60 54 13 10 6 7 5 7 6 7 8 9 17 31 25 12 6 5 4 5 4 2 4 3 3 6 6 17 19 22 24 25 23 19 17 15 14 12 8 5 2 1 4 7 10
30 39 39 59 65 67 76 80 74 67 40 10 10 8 6 7 7 17 23 22 20 36 36 20 11 7 5 5 3 5 3 5 6 5 3 12 20 25 26 27 25 23 21 18 16 15 13 9 5 3 2 4 7 10
28 36 47 74 77 69 81 82 70 56 24 12 9 7 16 18 9 14 17 27 35 36 24 9 6 4 3 6 5 8 8 7 4 6 10 18 24 27 30 29 25 27 21 20 18 15 12 9 6 3 2 4 7 10
25 21 56 78 67 76 83 64 50 16 20 13 7 16 23 24 26 26 28 27 46 41 5 9 6 4 10 4 5 6 6 2 10 12 15 19 24 31 32 30 27 29 22 20 18 16 13 10 7 4 2 4 6 9
27 28 60 74 79 85 81 39 17 11 6 8 11 24 22 23 31 28 26 46 36 21 15 6 13 6 7 8 5 8 12 12 11 13 15 20 25 30 32 28 29 28 23 20 18 16 13 10 7 5 3 3 5 8
30 24 67 89 70 59 23 14 9 7 6 13 23 38 26 28 26 43 42 53 29 31 19 15 5 6 5 10 12 20 25 22 20 18 17 21 28 33 33 30 30 27 23 21 18 15 13 10 8 6 4 3 3 6
37 23 71 84 79 22 8 4 13 10 8 13 25 26 23 18 31 37 43 45 36 20 7 5 7 10 17 20 21 22 25 23 22 23 23 27 30 35 36 34 32 28 24 20 18 15 13 11 9 7 5 4 2 5
40 37 85 86 50 17 8 9 7 9 16 10 29 21 14 25 24 23 25 29 15 8 8 11 19 21 19 22 22 19 20 20 22 21 25 35 36 39 37 33 31 28 25 22 19 16 13 10 9 8 6 5 3 4
31 70 71 48 17 7 6 6 15 15 7 17 15 12 13 9 12 17 26 15 10 17 13 21 29 30 25 25 24 20 19 20 20 20 24 32 43 42 39 37 33 29 25 21 18 16 14 12 10 7 6 5 4 4
59 55 41 11 8 6 8 13 6 7 6 10 10 7 4 7 12 25 11 10 9 22 24 26 30 31 29 26 23 21 20 22 23 25 30 37 42 42 38 34 30 27 24 20 18 16 15 14 11 9 7 5 4 3
52 21 9 8 6 6 12 5 6 10 10 5 4 6 6 8 22 5 6 13 10 27 34 35 37 36 31 29 29 27 27 27 27 27 33 42 43 40 35 32 28 24 21 19 18 16 15 13 12 11 8 6 5 4
10 5 11 5 7 8 6 7 4 4 5 4 5 4 6 12 5 7 5 10 31 37 41 42 41 42 41 37 34 33 32 32 32 35 40 42 42 38 34 30 27 24 22 20 19 17 15 14 12 11 9 8 7 5
7 5 5 6 6 7 9 8 8 7 7 5 4 10 8 5 5 8 9 24 34 46 50 51 50 46 43 41 41 39 39 36 34 38 43 44 40 40 38 34 30 26 22 20 18 17 15 14 13 12 11 9 7 6
7 4 6 7 14 16 8 10 14 7 6 8 7 8 6 8 10 5 19 35 42 46 49 50 51 49 47 45 40 37 38 39 39 41 44 41 36 33 31 29 27 23 22 21 19 17 16 15 14 13 12 10 8 7
5 9 12 14 8 5 7 6 6 6 6 16 16 8 12 12 5 15 19 38 41 48 54 51 48 48 48 48 45 45 45 43 42 41 42 38 35 31 26 23 21 19 19 20 18 18 17 15 15 13 12 10 9 9
4 20 16 12 6 5 3 4 4 7 17 27 7 5 5 5 18 19 32 45 48 54 56 51 47 48 46 46 47 49 50 50 50 48 45 41 36 32 28 25 23 23 22 21 20 18 16 16 14 13 12 11 10 9
5 7 6 4 5 4 3 6 11 20 23 15 14 18 14 13 14 28 43 48 53 57 58 59 60 58 57 58 56 52 48 46 44 45 44 42 38 33 30 27 25 23 21 20 20 19 18 17 16 16 14 12 12 11
8 7 6 5 5 13 24 33 32 24 16 17 25 30 22 17 18 26 33 39 42 44 48 52 52 53 59 60 59 57 52 47 43 39 36 35 33 31 29 27 24 22 21 20 20 19 19 18 17 15 14 14 13 12
6 3 5 7 9 26 24 17 14 22 15 15 13 16 22 14 8 16 26 31 37 41 45 51 55 54 58 55 53 49 47 45 42 37 33 30 29 27 25 23 22 22 21 21 20 20 19 18 18 17 16 15 14 14
26 35 32 20 8 5 8 11 9 7 10 9 10 16 10 5 6 12 27 31 36 40 43 47 51 53 51 51 50 46 41 38 35 32 30 29 28 28 27 24 24 23 22 21 21 20 20 19 18 18 17 17 16 16
Wind_Direction
243 225 217 212 214 214 215 210 208 208 207 212 211 213 216 217 213 203 206 204 198 121 134 145 144 128 139 152 144 147 131 176 156 120 163 107 227 107 249 77 275 264 193 177 109 261 275 153 161 270 343 322 328 332
243 230 224 212 215 213 212 207 205 206 204 207 205 207 210 210 203 198 200 193 195 143 132 135 127 141 151 140 121 158 107 134 167 122 195 105 158 161 356 263 193 245 242 289 218 351 102 159 300 318 297 315 324 326
252 227 223 213 215 210 208 205 202 204 201 202 199 199 197 192 188 193 200 184 166 115 102 111 106 118 128 140 145 138 164 159 146 133 119 99 136 180 223 232 219 199 197 237 300 177 223 208 228 277 297 309 322 326
243 224 223 220 214 208 205 203 200 201 198 198 197 198 199 190 183 192 197 180 166 129 112 108 124 116 113 127 135 131 154 145 143 117 93 116 153 200 288 353 267 38 160 201 244 192 185 205 183 285 310 325 326 325
239 223 215 228 214 208 202 201 198 198 195 194 192 187 182 181 184 189 202 186 171 168 122 129 115 102 110 110 116 120 128 131 118 90 84 115 108 170 191 300 244 185 192 197 16 128 153 133 179 265 324 335 332 334
238 227 214 220 212 206 200 198 196 195 192 189 187 180 176 181 189 173 143 174 184 146 112 124 128 110 117 117 122 123 127 121 107 94 103 114 157 199 229 262 85 173 163 146 145 132 121 133 140 208 343 335 335 338
239 223 213 221 213 206 198 195 193 193 189 185 183 180 181 171 165 179 193 170 161 138 115 106 110 151 136 117 107 97 107 104 87 95 117 135 144 168 247 244 143 168 158 137 139 129 123 142 149 189 351 336 339 340
236 224 210 214 210 206 194 193 190 190 185 181 177 172 162 168 184 171 154 150 152 125 106 110 101 148 155 121 94 104 92 86 66 100 125 172 162 213 246 223 165 163 156 152 153 133 131 144 148 130 356 340 346 344
232 225 210 211 208 207 192 189 187 185 181 174 169 165 167 174 173 144 143 140 131 123 113 104 137 154 151 117 110 97 96 87 78 168 153 202 199 229 225 188 179 174 173 170 164 152 142 148 163 123 357 343 346 343
232 220 207 212 212 208 191 186 185 181 175 168 161 154 174 173 155 140 136 147 117 81 90 91 121 123 150 141 118 124 76 106 174 94 154 226 256 242 216 187 184 177 171 168 166 170 170 175 178 154 6 342 345 343
231 218 209 206 205 206 189 184 182 174 170 158 165 166 148 147 141 132 136 127 123 67 81 108 132 129 138 141 127 127 136 128 160 113 248 234 256 208 191 176 174 172 171 171 175 178 173 176 166 136 349 336 341 342
236 214 204 204 208 207 186 184 179 173 167 169 158 133 136 153 125 120 75 120 149 159 136 126 131 121 125 122 113 133 112 161 164 141 248 250 213 168 169 169 169 170 165 169 169 164 162 163 168 181 306 332 341 347
245 206 200 203 202 202 184 183 179 171 163 153 144 159 151 162 110 163 176 199 161 165 157 149 132 124 116 115 96 125 144 132 129 201 242 239 163 170 169 167 167 167 167 168 164 170 174 179 186 201 328 347 344 348
230 207 198 202 206 203 187 181 179 167 159 167 143 133 190 175 200 183 174 134 139 149 142 136 117 120 124 108 136 121 96 149 178 230 234 192 185 174 170 171 169 169 171 171 174 174 177 177 187 218 326 342 342 351
217 214 202 202 209 209 186 182 177 171 171 160 152 192 176 150 126 141 149 134 140 145 140 122 95 108 109 111 115 114 133 206 217 227 203 174 174 171 169 172 173 172 171 173 175 175 175 179 184 209 310 333 347 353
221 212 198 197 196 199 183 180 173 176 187 165 169 117 146 140 133 143 144 136 149 147 137 116 116 125 130 135 153 206 170 210 209 201 176 170 172 172 172 172 173 178 172 175 176 175 180 183 184 210 285 327 347 353
231 225 196 195 196 192 182 172 176 183 181 174 159 158 158 156 166 164 162 160 158 152 142 137 131 151 124 157 192 189 209 191 158 160 175 179 180 173 171 169 174 176 172 174 177 179 186 194 196 205 252 319 344 354
238 198 193 196 190 181 174 183 187 182 143 138 143 159 164 166 159 158 166 161 157 180 161 159 131 163 172 172 200 198 190 172 157 166 168 173 171 172 169 169 175 176 174 175 178 184 192 194 196 209 242 304 337 351
220 209 195 189 187 170 179 196 188 115 98 136 154 165 160 160 171 177 174 163 178 171 151 151 133 171 188 208 188 180 181 173 169 166 168 170 173 171 170 173 175 175 176 177 179 186 193 198 201 213 234 281 328 342
205 191 186 185 180 169 148 140 157 129 141 156 156 148 153 155 165 173 161 172 170 163 167 176 184 190 177 179 180 182 180 176 171 156 158 165 175 178 177 177 177 177 178 177 181 191 197 204 210 216 229 257 307 329
209 200 178 174 172 166 146 146 109 115 123 121 142 134 121 139 136 146 162 170 178 207 182 193 177 174 182 182 179 179 179 189 187 193 190 173 175 178 179 180 180 182 184 186 190 192 194 198 210 219 230 253 288 324
210 172 166 168 163 118 103 131 122 112 91 140 119 112 125 140 141 155 161 188 220 202 186 181 180 177 172 170 171 175 176 177 190 197 187 183 173 179 181 184 183 185 188 192 192 195 197 201 210 222 228 249 277 310
173 166 163 143 105 94 125 120 97 113 125 151 123 101 117 136 167 154 190 219 197 198 186 185 182 179 178 173 171 172 179 188 189 189 184 180 179 181 182 184 186 187 189 191 194 196 200 208 211 215 219 234 261 292
163 152 128 115 113 113 137 139 129 111 116 142 109 110 133 132 152 210 236 179 177 176 181 183 178 170 172 175 177 181 188 192 192 186 183 182 180 180 183 183 186 190 193 191 192 196 201 198 200 205 212 220 239 257
118 126 112 116 131 113 128 140 139 110 110 137 121 137 151 164 177 191 215 173 170 173 176 179 180 181 177 179 183 185 191 194 190 181 184 184 180 177 180 184 186 189 190 190 193 195 194 196 199 207 212 219 233 243
94 161 132 136 148 131 158 136 158 132 119 131 115 131 146 140 173 227 189 166 170 175 179 181 182 181 188 197 189 188 192 190 190 185 179 184 185 181 180 182 186 190 193 197 198 197 198 198 202 206 207 215 223 235
116 137 138 120 129 119 105 90 124 107 133 153 152 158 158 175 221 181 149 178 175 188 192 194 194 194 195 192 195 196 191 188 189 183 179 180 183 189 189 189 195 199 199 200 202 202 201 202 204 204 208 214 220 228
118 155 142 147 119 123 115 125 143 155 144 151 137 172 181 198 174 159 169 176 188 189 187 188 190 192 196 196 190 185 179 177 178 178 173 175 182 187 190 196 201 198 194 198 200 198 199 202 203 204 208 214 219 222
120 134 124 111 98 87 90 128 145 135 141 161 143 144 139 116 145 163 167 173 181 178 173 173 179 188 188 188 186 183 179 175 175 173 173 173 178 186 192 192 190 189 188 188 190 194 196 196 199 203 209 215 220 221
109 100 97 73 64 66 77 92 115 130 136 132 112 110 97 96 142 164 168 169 169 173 175 177 180 184 183 180 176 175 178 179 179 176 175 181 184 183 185 185 183 180 181 185 190 192 195 201 204 206 210 217 222 222
111 104 86 86 93 95 109 109 108 103 97 103 120 119 121 114 122 150 160 164 164 163 164 168 171 179 178 175 173 171 171 177 181 185 185 181 178 177 179 181 181 183 187 191 194 197 199 200 204 209 214 219 222 227
57 78 117 101 122 124 108 80 76 94 91 91 112 126 122 114 102 155 163 167 164 165 169 168 169 170 179 176 175 176 176 174 178 181 180 174 172 176 178 182 183 186 190 192 197 201 202 204 208 214 219 223 227 231
104 103 106 103 100 82 109 98 94 66 55 90 107 118 103 90 125 157 167 173 170 165 162 162 168 171 173 175 173 174 174 171 170 171 171 172 174 176 179 183 186 189 193 197 201 204 208 211 214 219 225 231 236 239